Regional Weather Roundup
Issued by NWS Jackson, KY

Home | Current Version | Previous Version | Text Only | Print | Product List | Glossary Off
Versions: 1 2 3 4 5 6 7 8 9 10 11 12 13 14 15 16 17 18 19 20 21 22 23 24 25 26 27

000
ASUS43 KJKL 221110
RWRJKL

EAST KENTUCKY HOURLY WEATHER ROUNDUP
NATIONAL WEATHER SERVICE JACKSON KY
700 AM EDT WED MAR 22 2017

NOTE: "FAIR" INDICATES FEW OR NO CLOUDS BELOW 12,000 FEET WITH
NO SIGNIFICANT WEATHER AND/OR OBSTRUCTIONS TO VISIBILITY.

* THESE REPORTS ARE NOT UNDER NWS QUALITY CONTROL AND MAY NOT
  REPORT WEATHER SUCH AS PRECIPITATION AND FOG.

KYZ079-080-083-085-087-088-110-112-115-119-120-221200
...EASTERN KENTUCKY...

CITY           SKY/WX    TMP DP  RH WIND       PRES   REMARKS
JACKSON        PTCLDY    34  24  67 VRB5      30.26R WCI  30
LONDON         PTCLDY    37  23  56 N12       30.26R WCI  29
SOMERSET*      PTCLDY    36  25  64 N9        30.29R WCI  29
MONTICELLO*    MOCLDY    39  25  57 N23G30    30.29R WCI  28
WILLIAMSBURG*  MOSUNNY   39  23  52 N9        30.24R WCI  33
MIDDLESBORO*   PTCLDY    44  33  65 N8        30.21R
HARLAN APT*    SUNNY     43  23  45 NW6       30.20R
PIKE CO APT*     N/A     34  26  71 N7        30.25R WCI  28
BIG SANDY APT* MOSUNNY   34  26  73 N5        30.27R WCI  30
MOREHEAD APT*  SUNNY     32  16  51 N9        30.33R WCI  24
ASHLAND*       MOCLDY    34  21  60 N5        30.32R WCI  30
$$

KYZ035-036-041-042-044-050-067-078-099-221200
...CENTRAL KENTUCKY...

CITY           SKY/WX    TMP DP  RH WIND       PRES   REMARKS
MT STERLING*   MOCLDY    32  21  64 NE7       30.33R WCI  26
FLEMING/MASON* CLEAR     30  17  58 N13G18    30.35R WCI  20
DANVILLE*      CLOUDY    34  25  69 NE15      30.32R WCI  24
LEXINGTON      PTCLDY    32  18  56 NE16G25   30.32R WCI  21
FRANKFORT      CLEAR     35  17  47 N12       30.33R WCI  27
LOUISVILLE     PTCLDY    37  19  48 NE14      30.35R WCI  28
LEBANON*         N/A     36  25  64 N10G16    30.32R WCI  28
GLASGOW*       CLEAR     40  22  49 NE9       30.29R WCI  34
BOWLING GREEN  PTCLDY    44  23  43 NE12      30.30R
$$

KYZ091>093-OHZ055-061-077-WVZ005-015-034-035-042-221200
...SOUTHERN OHIO/WEST VIRGINIA...

CITY           SKY/WX    TMP DP  RH WIND       PRES   REMARKS
COVINGTON      CLEAR     30  16  56 N15       30.35R WCI  19
COLUMBUS       PTCLDY    28  16  60 N15       30.35R WCI  16
DAYTON         PTCLDY    24  13  62 NE16      30.39R WCI  11
WILMINGTON     PTCLDY    26  19  74 N14       30.35R WCI  14
HUNTINGTON     CLEAR     33  23  66 N7        30.30R WCI  27
CHARLESTON     CLOUDY    36  26  67 VRB6      30.26R WCI  31
PINEVILLE*     CLEAR     38  24  58 MISG      30.23R
BECKLEY        CLEAR     33  23  66 N13       30.15R WCI  24
BLUEFIELD      PTCLDY    37  28  70 NW8G17    30.12R WCI  31
LOGAN CO APT*  CLOUDY    36  27  69 N5G12     30.22R WCI  32
$$

VAZ002-007-008-TNZ017-027-036-066-071-221200
...SOUTHWEST VIRGINIA/EAST TENNESSEE...

CITY           SKY/WX    TMP DP  RH WIND       PRES   REMARKS
WISE*          PTCLDY    37  27  65 N10G17    30.17R WCI  30
JONESVILLE*      N/A     45  34  65 N6        30.19R
ABINGDON*      CLOUDY    46  35  64 CALM      30.14R
BRISTOL        CLOUDY    48  38  68 N9        30.14R
MORRISTOWN*    SUNNY     50  41  71 N8        30.14R
SEVIERVILLE*   CLOUDY    50  43  76 NE5       30.15R
KNOXVILLE      PTCLDY    50  40  68 N12       30.14R
LAFOLLETTE*    CLOUDY    45  32  61 NE5G12    30.23R
OAK RIDGE      CLEAR     50  36  58 VRB6      30.19R
CROSSVILLE     PTCLDY    43  34  70 N14G20    30.19R
NASHVILLE      PTCLDY    48  31  51 NE18      30.24R
$$

...KEY TO REMARKS...
VSB - VISIBILITY IN MILES
WCI - WIND CHILL INDEX
HX  - HEAT INDEX

$$




USA.gov is the U.S. government's official web portal to all federal, state and local government web resources and services.